NOAA NWS Hourly Roundups by Site

Regional Weather Roundup for Seattle, WA

To Select Another Site Choose from List

Select Site:  

659
ASUS46 KSEW 171910
RWRWA

WASHINGTON REGIONAL WEATHER ROUNDUP
NATIONAL WEATHER SERVICE SEATTLE WA
1200 PM PDT TUE SEP 17 2019

NOTE:"FAIR" INDICATES FEW OR NO CLOUDS BELOW 12,000 FEET WITH NO
SIGNIFICANT WEATHER AND/OR OBSTRUCTIONS TO VISIBILITY.

WAZ507-509-555>559-172000-
SEATTLE, TACOMA, EVERETT, AND VICINITY

CITY           SKY/WX    TMP DP  RH WIND       PRES   REMARKS
EVERETT        CLOUDY    57  53  86 VRB7      29.74F
BOEING FIELD   CLOUDY    61  54  77 SE8       29.73S
RENTON         CLOUDY    60  55  83 CALM      29.73S
SEATAC AIRPORT PTSUNNY   60  52  74 S12       29.73F
JBLM-MCCHORD   CLOUDY    57  57 100 SW3       29.73S
PUYALLUP       CLOUDY    63  50  63 S9G17     29.72F
BREMERTON      CLOUDY    58  54  86 S12G22    29.71F
JBLM-FT LEWIS  CLOUDY    58  58  99 S7        29.72S
TACOMA NARROWS LGT RAIN  56  53  90 S10G17    29.73S FOG
$$

WAZ001-503-506-510-514-515-172000-
NORTH INTERIOR

CITY           SKY/WX    TMP DP  RH WIND       PRES   REMARKS
BELLINGHAM     CLOUDY    62  50  64 VRB7      29.68S
FRIDAY HARBOR  CLOUDY    60  50  69 SE17G32   29.67R
EASTSOUND      PTSUNNY   63  50  63 S15G22    29.65S
PORT ANGELES   LGT RAIN  60  57  89 VRB6      29.63R
EDIZ HOOK      CLOUDY    55  52  90 NW5       29.62R
PORT TOWNSEND  PTSUNNY   57  55  94 SE16G23   29.67F FOG
NAS WHIDBEY    PTSUNNY   65  50  58 SE30G43   29.70F
ARLINGTON      CLOUDY    57  54  89 E5        29.74S
BURLINGTON     CLOUDY    63  52  67 SE12G17   29.71S
$$

WAZ020-022-039-040-504-511-512-172000-
SOUTHWEST INTERIOR

CITY           SKY/WX    TMP DP  RH WIND       PRES   REMARKS
SHELTON        CLOUDY    59  52  77 S12       29.67S
OLYMPIA        CLOUDY    57  53  86 S9        29.72F FOG
CHEHALIS       PTSUNNY   61  55  82 S20G38    29.72F
KELSO          LGT RAIN  57  55  93 S12G22    29.78R FOG
VANCOUVER      CLOUDY    60  53  77 E8        29.79F
SCAPPOOSE, OR  LGT RAIN  57  56  96 CALM      29.78F FOG
PORTLAND, OR   LGT RAIN  60  54  80 SE10      29.79F
$$

WAZ021-516-517-172000-
WASHINGTON COAST

CITY           SKY/WX    TMP DP  RH WIND       PRES   REMARKS
FORKS          LGT RAIN  60  58  92 SE6       29.62S
HOQUIAM        CLOUDY    59  59 100 SE15      29.67S
ASTORIA, OR    CLOUDY    61  58  90 S13G21    29.69S
$$

WAZ019-023-024-040-567>569-172000-
CASCADE MOUNTAINS AND COLUMBIA GORGE

CITY           SKY/WX    TMP DP  RH WIND       PRES   REMARKS
STAMPEDE PASS  NOT AVBL
TROUTDALE, OR  CLOUDY    59  53  80 E12       29.81F
HOOD RIVER, OR DRIZZLE   55  52  88 CALM      29.86F
THE DALLES, OR LGT RAIN  57  51  80 SW5       29.85F
$$

WAZ026-027-041>044-520-521-172000-
EAST SLOPES

CITY           SKY/WX    TMP DP  RH WIND       PRES   REMARKS
OMAK           CLOUDY    61  45  55 S12       29.85F
WENATCHEE      LGT RAIN  55  50  83 E10       29.83F
ELLENSBURG     LGT RAIN  54  48  80 E8        29.85F
YAKIMA         LGT RAIN  58  51  78 CALM      29.85F
SUNNYSIDE ARPT LGT RAIN  63  47  57 SE7       29.86F
YAKIMA TC      RAIN      55  51  86 CALM      29.84F
$$

WAZ028-034-035-172000-
COLUMBIA BASIN

CITY           SKY/WX    TMP DP  RH WIND       PRES   REMARKS
EPHRATA        PTSUNNY   63  43  48 S13       29.85F
MOSES LAKE     PTSUNNY   65  44  46 S14       29.87F
PASCO          CLOUDY    70  42  36 S12       29.87F
RICHLAND ARPT  CLOUDY    69  43  38 SE7       29.87
HERMISTON, OR  CLOUDY    71  40  32 SW16      29.86F
$$

WAZ036>038-172000-
NORTHEAST WASHINGTON

CITY           SKY/WX    TMP DP  RH WIND       PRES   REMARKS
SPOKANE GEIGER PTSUNNY   57  42  57 SW16      29.92F
SPOKANE FELTS  PTSUNNY   62  42  47 SW10G18   29.93F
FAIRCHILD AFB  PTSUNNY   58  45  60 SW12      29.91F
COEURDALENE,ID PTSUNNY   60  42  51 W8        29.94F
DEER PARK      PTSUNNY   56  45  66 SE12      29.93F
$$

WAZ029>033-172000-
SOUTHEAST WASHINGTON

CITY           SKY/WX    TMP DP  RH WIND       PRES   REMARKS
PULLMAN        MOSUNNY   61  40  45 VRB6      29.95F
LEWISTON, ID   SUNNY     70  38  31 SW13      29.91F
WALLA WALLA    PTSUNNY   69  42  37 S16       29.89F
PENDLETON, OR  CLOUDY    66  41  40 S14G24    29.88F
$$



 

View Past Reports for Seattle, WA.

Products Courtesy of NOAA-NWS
NWS Information Parsing Script by Ken True at Saratoga Weather - Script by SE Lincoln Weather.